Alice Springs, Northern Territory

8:59 AM ACST on February 06, 2016 (GMT +0930)
Alice Springs

Weather History for YBAS - February, 2013

Change the Weather History Date:

Wednesday, February 20, 2013

  Actual Average Record
Temperature  
Mean Temperature 84 °F -  
Max Temperature 99 °F 92 °F 105 °F (2008)
Min Temperature 68 °F 66 °F 57 °F (2014)
Cooling Degree Days 18    
Growing Degree Days 34 (Base 50)    
Moisture  
Dew Point 44 °F    
Average Humidity 25    
Maximum Humidity 52    
Minimum Humidity 6    
Precipitation  
Precipitation 0.00 in 0.06 in - ()
Sea Level Pressure  
Sea Level Pressure 29.87 in    
Wind  
Wind Speed 8 mph ()    
Max Wind Speed 24 mph    
Max Gust Speed 33 mph    
Visibility 8.0 miles    
Events      
Averages and records for this station are not official NWS values.
T = Trace of Precipitation, MM = Missing Value Source: Averaged Metar Reports

Daily Weather History Graph

Daily Weather History Graph

Search for Another Location

Airport or City:

Trip Planner

Search our weather history database for the weather conditions in past years. The results will help you decide how hot, cold, wet, or windy it might be!

Date:

Astronomy

Feb. 20, 2013 Rise Set
Actual Time 6:24 AM ACST 7:11 PM ACST
Civil Twilight 6:01 AM ACST 7:34 PM ACST
Nautical Twilight 5:34 AM ACST 8:01 PM ACST
Astronomical Twilight 5:06 AM ACST 8:29 PM ACST
Moon 2:59 PM ACST (2/20) 1:16 AM ACST (2/20)
Length of Visible Light 13h 32m
Length of Day
12h 46m
Waxing Gibbous, 71% of the Moon is Illuminated
Feb 20
Waxing Gibbous
Feb 26
Full
Mar 5
Last Quarter
Mar 12
New
Mar 20
First Quarter

Hourly Weather History & Observations

Time (ACST) Temp. Dew Point Humidity Pressure Visibility Wind Dir Wind Speed Gust Speed Precip Events Conditions
12:00 AM 79 °F 52 °F 28% 29.83 in - ESE 4.6 mph - -  
12:00 AM 78.8 °F 51.8 °F 39% 29.95 in 6.2 mi ESE 4.6 mph - N/A   Scattered Clouds
12:30 AM 76 °F 50 °F 30% 29.82 in - South 4.6 mph - -  
12:30 AM 77.0 °F 50.0 °F 39% 29.92 in 6.2 mi South 4.6 mph - N/A   Scattered Clouds
1:00 AM 75.2 °F 48.2 °F 38% 29.92 in 6.2 mi SE 4.6 mph - N/A   Unknown
1:30 AM 73.4 °F 48.2 °F 41% 29.92 in 6.2 mi North 4.6 mph - N/A   Unknown
2:00 AM 75.2 °F 48.2 °F 38% 29.92 in 6.2 mi Calm Calm - N/A   Unknown
2:30 AM 73.4 °F 50.0 °F 44% 29.92 in 6.2 mi Calm Calm - N/A   Unknown
3:00 AM 71 °F 47 °F 31% 29.81 in - South 4.6 mph - -  
3:00 AM 71.6 °F 46.4 °F 41% 29.92 in 6.2 mi South 4.6 mph - N/A   Scattered Clouds
3:30 AM 71 °F 48 °F 32% 29.80 in - Calm Calm - -  
3:30 AM 71.6 °F 48.2 °F 43% 29.92 in 6.2 mi Calm Calm - N/A   Unknown
4:00 AM 71.6 °F 51.8 °F 50% 29.92 in 6.2 mi WSW 4.6 mph - N/A   Unknown
4:30 AM 69.8 °F 48.2 °F 46% 29.92 in 6.2 mi SSW 5.8 mph - N/A   Unknown
5:00 AM 69.8 °F 48.2 °F 46% 29.92 in 6.2 mi Calm Calm - N/A   Unknown
5:30 AM 69.8 °F 48.2 °F 46% 29.92 in 6.2 mi NW 3.5 mph - N/A   Unknown
6:00 AM 69 °F 48 °F 36% 29.82 in 19 mi West 5.8 mph - -   Partly Cloudy
6:00 AM 69.8 °F 48.2 °F 46% 29.92 in - West 5.8 mph - N/A   Clear
6:30 AM 68 °F 51 °F 43% 29.83 in - SW 5.8 mph - -  
6:30 AM 68.0 °F 50.0 °F 52% 29.92 in - SW 5.8 mph - N/A   Clear
7:00 AM 69.8 °F 48.2 °F 46% 29.95 in - WSW 4.6 mph - N/A   Clear
7:30 AM 75.2 °F 50.0 °F 41% 29.95 in - Calm Calm - N/A   Clear
8:00 AM 80.6 °F 51.8 °F 37% 29.95 in - East 3.5 mph - N/A   Clear
8:30 AM 84.2 °F 51.8 °F 33% 29.95 in - East 8.1 mph - N/A   Clear
9:00 AM 86 °F 51 °F 20% 29.86 in 19 mi ESE 9.2 mph - -   Partly Cloudy
10:00 AM 89.6 °F 42.8 °F 20% 29.95 in - East 19.6 mph - N/A   Clear
10:30 AM 89.6 °F 44.6 °F 21% 29.95 in - East 16.1 mph - N/A   Clear
11:03 AM 91.4 °F 44.6 °F 20% 29.95 in - East 20.7 mph - N/A   Clear
11:30 AM 91.4 °F 41.0 °F 17% 29.95 in - East 17.3 mph - N/A   Clear
12:00 PM 92 °F 42 °F 10% 29.82 in 19 mi ESE 15.0 mph - -   Partly Cloudy
12:00 PM 93.2 °F 42.8 °F 17% 29.92 in - ESE 15.0 mph - N/A   Clear
12:20 PM 93.2 °F 41.0 °F 16% 29.92 in - ESE 17.3 mph 29.9 mph N/A   Clear
12:30 PM 95 °F 42 °F 8% 29.80 in - East 19.6 mph - -  
12:30 PM 95.0 °F 41.0 °F 15% 29.89 in - East 19.6 mph - N/A   Clear
12:54 PM 95.0 °F 39.2 °F 14% 29.89 in - East 18.4 mph 29.9 mph N/A   Clear
1:01 PM 95.0 °F 41.0 °F 15% 29.89 in - East 18.4 mph 29.9 mph N/A   Clear
1:04 PM 95.0 °F 39.2 °F 14% 29.89 in - SE 24.2 mph - N/A   Clear
1:08 PM 95.0 °F 39.2 °F 14% 29.89 in - SE 21.9 mph 33.4 mph N/A   Clear
1:30 PM 98.6 °F 39.2 °F 13% 29.86 in - SE 17.3 mph - N/A   Clear
1:39 PM 95.0 °F 39.2 °F 14% 29.86 in - East 17.3 mph 29.9 mph N/A   Clear
2:03 PM 96.8 °F 39.2 °F 14% 29.86 in - East 18.4 mph 32.2 mph N/A   Clear
2:32 PM 96.8 °F 37.4 °F 13% 29.83 in - East 17.3 mph 29.9 mph N/A   Clear
3:00 PM 97 °F 38 °F 7% 29.73 in 19 mi ENE 15.0 mph - -   Partly Cloudy
3:01 PM 95.0 °F 41.0 °F 15% 29.83 in - East 17.3 mph 29.9 mph N/A   Clear
3:30 PM 99 °F 37 °F 6% 29.73 in - SE 18.4 mph - -  
3:33 PM 96.8 °F 39.2 °F 14% 29.83 in - SE 18.4 mph 29.9 mph N/A   Clear
4:00 PM 96.8 °F 41.0 °F 15% 29.83 in - ESE 17.3 mph - N/A   Clear
4:30 PM 96.8 °F 41.0 °F 15% 29.83 in - East 20.7 mph - N/A   Clear
4:52 PM 96.8 °F 39.2 °F 14% 29.83 in - ESE 20.7 mph 33.4 mph N/A   Clear
5:00 PM 96.8 °F 37.4 °F 13% 29.83 in - ESE 23.0 mph - N/A   Clear
5:30 PM 95.0 °F 39.2 °F 14% 29.83 in 6.2 mi ESE 21.9 mph - N/A   Unknown
6:00 PM 95 °F 38 °F 7% 29.73 in - ESE 20.7 mph - -  
6:00 PM 95.0 °F 37.4 °F 13% 29.83 in 6.2 mi ESE 20.7 mph - N/A   Unknown
6:30 PM 94 °F 38 °F 7% 29.74 in - SE 18.4 mph - -  
6:30 PM 95.0 °F 39.2 °F 14% 29.86 in 6.2 mi SE 18.4 mph - N/A   Unknown
7:00 PM 91.4 °F 39.2 °F 16% 29.86 in 6.2 mi ESE 17.3 mph - N/A   Unknown
7:30 PM 91.4 °F 39.2 °F 16% 29.86 in 6.2 mi ESE 15.0 mph - N/A   Unknown
8:00 PM 89.6 °F 39.2 °F 17% 29.86 in 6.2 mi ESE 13.8 mph - N/A   Unknown
8:30 PM 89.6 °F 41.0 °F 18% 29.89 in 6.2 mi ESE 12.7 mph - N/A   Unknown
9:00 PM 88 °F 42 °F 11% 29.79 in - East 9.2 mph - -  
9:00 PM 87.8 °F 41.0 °F 19% 29.89 in 6.2 mi East 9.2 mph - N/A   Unknown
9:30 PM 86 °F 43 °F 13% 29.80 in - ESE 6.9 mph - -  
9:30 PM 86.0 °F 42.8 °F 22% 29.89 in 6.2 mi ESE 6.9 mph - N/A   Unknown
10:00 PM 84.2 °F 44.6 °F 25% 29.92 in 6.2 mi ESE 6.9 mph - N/A   Unknown
10:30 PM 82.4 °F 46.4 °F 28% 29.92 in 6.2 mi NE 4.6 mph - N/A   Unknown
11:00 PM 78.8 °F 44.6 °F 30% 29.92 in 6.2 mi Calm Calm - N/A   Unknown
11:30 PM 77.0 °F 44.6 °F 32% 29.92 in 6.2 mi Calm Calm - N/A   Unknown